Location: Central Coast NSW, Australia
(33.2407°S, 151.4316°E)
Time: 09:41:49
(UTC+11:00)

ISS - Pass Details

Date: 29 January 2019
Orbit: 403 x 411 km, 51.6° (Epoch: 20 February)

Event Time Altitude Azimuth Distance (km) Brightness Sun altitude
Exits shadow 04:14:46 34° 63° (ENE) 708 -2.5 -21.9°
Drops below altitude 10° 04:17:31 10° 116° (ESE) 1,490 0.1 -21.4°
Sets 04:19:43 0° 125° (SE) 2,356 1.6 -21.1°
